EW8153 Weather Reports


time (UTC)temp
C
wind
direction
speed
KPH
gust
KPH
rain 1hr
cm
rain 24hr
cm
rain mn
cm
humidity
%
barometer
mb
20260506094549 13 72 3.2 19.3 0.00 0.00 0.00 61 1012.7
20260506094023 12 340 3.2 19.3 0.00 0.00 0.00 61 1012.7
20260506093523 12 309 4.8 17.7 0.00 0.00 0.00 60 1012.8
20260506093037 12 9 3.2 16.1 0.00 0.00 0.00 62 1012.7
20260506092523 12 74 3.2 17.7 0.00 0.00 0.00 64 1012.6
20260506092024 12 292 4.8 22.5 0.00 0.00 0.00 65 1012.5
20260506091536 12 212 4.8 22.5 0.00 0.00 0.00 65 1012.6
20260506091023 12 286 11.3 22.5 0.00 0.00 0.00 64 1012.5
20260506090523 12 24 3.2 19.3 0.00 0.00 0.00 66 1012.6
20260506090035 12 332 4.8 20.9 0.00 0.00 0.00 66 1012.5
20260506085526 12 311 3.2 20.9 0.00 0.00 0.00 66 1012.5
20260506085026 12 310 4.8 20.9 0.00 0.00 0.00 67 1012.4
20260506084546 12 344 6.4 20.9 0.00 0.00 0.00 66 1012.5
20260506084026 12 310 3.2 20.9 0.00 0.00 0.00 68 1012.4
20260506083524 12 298 8.0 20.9 0.00 0.00 0.00 67 1012.3
20260506083040 11 328 3.2 17.7 0.00 0.00 0.00 67 1012.4
20260506082523 11 292 4.8 17.7 0.00 0.00 0.00 68 1012.4
20260506082023 11 9 3.2 17.7 0.00 0.00 0.00 70 1012.4
20260506081541 11 334 6.4 17.7 0.00 0.00 0.00 70 1012.3
20260506081023 11 61 3.2 16.1 0.00 0.00 0.00 71 1012.3
20260506080523 11 51 4.8 16.1 0.00 0.00 0.00 71 1012.4
20260506073524 10 307 1.6 14.5 0.00 0.00 0.00 75 1012.2
20260506073046 10 9 3.2 14.5 0.00 0.00 0.00 77 1012.2
20260506072526 10 146 3.2 12.9 0.00 0.00 0.00 77 1012.2
20260506072026 10 111 3.2 12.9 0.00 0.00 0.00 77 1012.2
20260506071542 10 9 3.2 11.3 0.00 0.00 0.00 78 1012.1
20260506071025 9 329 3.2 14.5 0.00 0.00 0.00 79 1012.1
20260506070524 9 305 3.2 14.5 0.00 0.00 0.00 79 1012.2
20260506062023 8 61 1.6 9.7 0.00 0.00 0.00 82 1012.2
20260506061537 8 325 1.6 8.0 0.00 0.00 0.00 83 1012.1
20260506061022 8 0 1.6 8.0 0.00 0.00 0.00 83 1012.2
20260506060522 8 292 1.6 8.0 0.00 0.00 0.00 84 1012.1
20260506051025 7 9 1.6 8.0 0.00 0.00 0.00 88 1012.1
20260506050526 7 193 1.6 11.3 0.00 0.00 0.00 88 1012.0
20260506045027 7 51 1.6 9.7 0.00 0.00 0.00 88 1012.0
20260506044547 7 25 3.2 9.7 0.00 0.00 0.00 88 1011.9
20260506044026 7 279 1.6 8.0 0.00 0.00 0.00 88 1011.9
20260506043525 7 309 1.6 8.0 0.00 0.00 0.00 87 1011.8
20260506043040 7 286 1.6 9.7 0.00 0.00 0.00 87 1011.7
20260506042523 7 51 1.6 9.7 0.00 0.00 0.00 87 1011.8
20260506042023 7 178 1.6 9.7 0.00 0.00 0.00 87 1011.6
20260506041539 7 205 1.6 12.9 0.00 0.00 0.00 87 1011.8
20260506041025 7 93 1.6 12.9 0.00 0.00 0.00 87 1011.7
20260506040525 7 9 3.2 12.9 0.00 0.00 0.00 87 1011.7
20260506040055 7 347 1.6 9.7 0.00 0.00 0.00 87 1011.6
20260506035526 7 162 1.6 9.7 0.00 0.00 0.00 87 1011.6
20260506035027 7 249 1.6 9.7 0.00 0.00 0.00 86 1011.6
20260506034537 7 221 1.6 11.3 0.00 0.00 0.00 86 1011.6
20260506034024 7 196 1.6 11.3 0.00 0.00 0.00 86 1011.6
20260506033522 7 34 1.6 9.7 0.00 0.00 0.00 86 1011.6
20260506033036 8 287 1.6 9.7 0.00 0.00 0.00 86 1011.5
20260506032523 8 51 1.6 8.0 0.00 0.00 0.00 86 1011.6
20260506032023 8 314 1.6 8.0 0.00 0.00 0.00 86 1011.6
20260506031551 8 41 1.6 8.0 0.00 0.00 0.00 85 1011.6
20260506031030 8 0 1.6 6.4 0.00 0.00 0.00 85 1011.6
20260506030522 8 279 1.6 9.7 0.00 0.00 0.00 85 1011.6
20260506030041 8 0 1.6 9.7 0.00 0.00 0.00 85 1011.6
20260506025522 8 48 3.2 8.0 0.00 0.00 0.00 84 1011.6
20260506025022 8 316 1.6 9.7 0.00 0.00 0.00 84 1011.8
20260506024540 8 46 3.2 9.7 0.00 0.00 0.00 85 1011.8
20260506024022 8 282 1.6 8.0 0.00 0.00 0.00 85 1011.8
20260506023526 8 126 1.6 8.0 0.00 0.00 0.00 84 1011.7
20260506023037 8 80 1.6 8.0 0.00 0.00 0.00 84 1011.7
20260506022523 8 0 1.6 6.4 0.00 0.00 0.00 85 1011.7
20260506022025 8 9 1.6 6.4 0.00 0.00 0.00 85 1011.8
20260506021536 8 43 1.6 8.0 0.00 0.00 0.00 85 1011.7
20260506021028 8 51 1.6 8.0 0.00 0.00 0.00 86 1011.8
20260506020527 9 296 1.6 8.0 0.00 0.00 0.00 86 1011.8
20260506020035 9 34 1.6 9.7 0.00 0.00 0.00 86 1011.8
20260506015526 9 51 1.6 9.7 0.00 0.00 0.00 86 1011.8
20260506015023 9 232 0.0 8.0 0.00 0.00 0.00 86 1011.8
20260506014543 9 0 1.6 9.7 0.00 0.00 0.00 86 1011.8
20260506014022 9 44 1.6 11.3 0.00 0.00 0.00 86 1011.8
20260506013522 9 31 3.2 11.3 0.00 0.00 0.00 86 1011.7
20260506013039 9 93 1.6 8.0 0.00 0.00 0.00 86 1011.7
20260506012524 9 0 1.6 9.7 0.00 0.00 0.00 85 1011.8
20260506012111 9 310 1.6 9.7 0.00 0.00 0.00 85 1011.7
20260506011539 9 330 1.6 6.4 0.00 0.00 0.00 85 1011.8
20260506011023 9 0 1.6 9.7 0.00 0.00 0.00 85 1011.8
20260506010526 9 51 1.6 9.7 0.00 0.00 0.00 85 1011.9
20260506010042 9 19 1.6 8.0 0.00 0.00 0.00 85 1011.9
20260506005523 9 332 1.6 9.7 0.00 0.00 0.00 84 1011.9
20260506005023 9 65 1.6 9.7 0.00 0.00 0.00 84 1011.8
20260506004537 9 334 1.6 9.7 0.00 0.00 0.00 84 1011.9
20260506004029 9 55 1.6 11.3 0.00 0.00 0.00 84 1011.9
20260506003524 9 0 1.6 11.3 0.00 0.00 0.00 84 1011.9
20260506003042 9 309 1.6 6.4 0.00 0.00 0.00 84 1011.8
20260506002522 9 292 1.6 9.7 0.00 0.00 0.00 84 1011.9
20260506002022 9 137 1.6 9.7 0.00 0.00 0.00 84 1012.0
20260506001541 9 325 1.6 9.7 0.00 0.00 0.00 84 1011.9
20260506001023 9 24 1.6 9.7 0.00 0.00 0.00 84 1011.9
20260506000523 9 68 1.6 9.7 0.00 0.00 0.00 83 1011.9
20260506000038 9 51 1.6 11.3 0.00 0.00 0.00 83 1011.9
20260505235525 9 34 3.2 11.3 0.00 0.00 0.00 82 1011.9
20260505235022 9 86 3.2 8.0 0.00 0.00 0.00 82 1011.9
20260505234545 9 51 1.6 8.0 0.00 0.00 0.00 81 1011.9
20260505234022 9 120 1.6 6.4 0.00 0.00 0.00 80 1012.0
20260505233522 10 336 1.6 8.0 0.00 0.00 0.00 79 1012.0
20260505233035 10 57 1.6 8.0 0.00 0.00 0.00 79 1012.0
20260505232522 10 0 1.6 8.0 0.00 0.00 0.00 78 1012.0
20260505232026 10 32 1.6 8.0 0.00 0.00 0.00 78 1012.1
20260505231545 10 300 1.6 11.3 0.00 0.00 0.00 78 1012.1
20260505231025 10 51 1.6 14.5 0.00 0.00 0.00 77 1012.1
20260505230522 10 153 1.6 14.5 0.00 0.00 0.00 76 1012.2
20260505230035 10 63 3.2 14.5 0.00 0.00 0.00 76 1012.2
20260505225527 10 28 3.2 8.0 0.00 0.00 0.00 76 1012.2
20260505225023 10 44 1.6 8.0 0.00 0.00 0.00 75 1012.2
20260505224541 10 68 3.2 9.7 0.00 0.00 0.00 75 1012.2
20260505224026 10 316 1.6 9.7 0.00 0.00 0.00 74 1012.2
20260505223525 10 205 1.6 9.7 0.00 0.00 0.00 74 1012.1
20260505223049 10 221 1.6 9.7 0.00 0.00 0.00 73 1012.2
20260505222530 10 46 1.6 9.7 0.00 0.00 0.00 73 1012.2
20260505222022 10 0 1.6 8.0 0.00 0.00 0.00 73 1012.2
20260505221539 10 0 1.6 9.7 0.00 0.00 0.00 72 1012.3
20260505221026 10 309 1.6 9.7 0.00 0.00 0.00 72 1012.3
20260505220522 10 80 1.6 9.7 0.00 0.00 0.00 71 1012.4
20260505220041 10 22 1.6 9.7 0.00 0.00 0.00 71 1012.4
20260505215522 10 44 1.6 9.7 0.00 0.00 0.00 71 1012.4
20260505215026 10 51 1.6 9.7 0.00 0.00 0.00 71 1012.4
20260505214547 10 244 3.2 9.7 0.00 0.00 0.00 70 1012.4
20260505214027 10 59 1.6 8.0 0.00 0.00 0.00 71 1012.4
20260505213522 11 9 1.6 9.7 0.00 0.00 0.00 70 1012.3
20260505213036 11 41 1.6 9.7 0.00 0.00 0.00 69 1012.3
20260505212522 11 137 1.6 8.0 0.00 0.00 0.00 68 1012.2
20260505212024 11 21 1.6 11.3 0.00 0.00 0.00 68 1012.3
20260505211541 11 19 3.2 11.3 0.00 0.00 0.00 67 1012.4
20260505211026 11 325 1.6 11.3 0.00 0.00 0.00 67 1012.4
20260505210525 11 56 3.2 9.7 0.00 0.00 0.00 67 1012.4
20260505210039 11 196 1.6 9.7 0.00 0.00 0.00 69 1012.3
20260505205522 11 51 1.6 6.4 0.00 0.00 0.00 70 1012.3
20260505205022 11 0 0.0 6.4 0.00 0.00 0.00 70 1012.3
20260505204540 11 80 1.6 6.4 0.00 0.00 0.00 70 1012.3
20260505204024 11 56 1.6 11.3 0.00 0.00 0.00 69 1012.2
20260505203526 11 332 1.6 11.3 0.00 0.00 0.00 69 1012.2
20260505203035 11 0 1.6 8.0 0.00 0.00 0.00 70 1012.2
20260505202523 11 26 1.6 8.0 0.00 0.00 0.00 70 1012.2
20260505202023 11 54 1.6 6.4 0.00 0.00 0.00 69 1012.1
20260505201542 11 338 1.6 9.7 0.00 0.00 0.00 69 1012.1
20260505201022 12 334 1.6 9.7 0.00 0.00 0.00 69 1012.0
20260505200523 12 178 1.6 8.0 0.00 0.00 0.00 68 1012.0
20260505200044 12 93 1.6 6.4 0.00 0.00 0.00 68 1012.0
20260505195527 12 142 1.6 6.4 0.00 0.00 0.00 68 1011.9
20260505195022 12 66 1.6 4.8 0.00 0.00 0.00 68 1011.8
20260505194540 12 325 1.6 4.8 0.00 0.00 0.00 68 1011.7
20260505194023 12 137 1.6 6.4 0.00 0.00 0.00 67 1011.6
20260505193522 12 44 1.6 6.4 0.00 0.00 0.00 67 1011.6
20260505193038 12 44 1.6 6.4 0.00 0.00 0.00 67 1011.5
20260505192526 12 41 0.0 3.2 0.00 0.00 0.00 68 1011.5
20260505192024 12 0 0.0 3.2 0.00 0.00 0.00 67 1011.4
20260505191537 12 26 0.0 4.8 0.00 0.00 0.00 66 1011.5
20260505191023 12 0 1.6 4.8 0.00 0.00 0.00 66 1011.5
20260505190523 12 0 0.0 4.8 0.00 0.00 0.00 66 1011.5
20260505185526 13 0 0.0 3.2 0.00 0.00 0.00 65 1011.5
20260505185027 13 61 0.0 3.2 0.00 0.00 0.00 65 1011.4
20260505184540 13 51 0.0 3.2 0.00 0.00 0.00 64 1011.3
20260505184025 13 0 0.0 3.2 0.00 0.00 0.00 63 1011.3
20260505183524 13 0 0.0 4.8 0.00 0.00 0.00 63 1011.3
20260505183040 13 120 0.0 4.8 0.00 0.00 0.00 63 1011.3
20260505182526 13 51 0.0 3.2 0.00 0.00 0.00 62 1011.3
20260505182024 13 319 1.6 4.8 0.00 0.00 0.00 62 1011.2
20260505181542 13 0 0.0 4.8 0.00 0.00 0.00 61 1011.3
20260505181026 13 71 1.6 6.4 0.00 0.00 0.00 61 1011.4
20260505180524 13 76 1.6 8.0 0.00 0.00 0.00 60 1011.3
20260505180040 13 34 1.6 8.0 0.00 0.00 0.00 58 1011.4
20260505175524 14 309 1.6 6.4 0.00 0.00 0.00 58 1011.5
20260505175024 14 26 1.6 6.4 0.00 0.00 0.00 57 1011.5
20260505174541 14 309 1.6 6.4 0.00 0.00 0.00 57 1011.5
20260505174026 14 9 1.6 6.4 0.00 0.00 0.00 56 1011.5
20260505173523 14 51 1.6 9.7 0.00 0.00 0.00 55 1011.5
20260505173041 15 22 1.6 9.7 0.00 0.00 0.00 53 1011.6
20260505172523 15 61 1.6 8.0 0.00 0.00 0.00 52 1011.6
20260505172023 15 137 1.6 8.0 0.00 0.00 0.00 53 1011.6
20260505171540 15 111 1.6 11.3 0.00 0.00 0.00 53 1011.7
20260505171027 15 93 3.2 11.3 0.00 0.00 0.00 52 1011.7
20260505170524 15 301 1.6 9.7 0.00 0.00 0.00 52 1011.6
20260505170038 15 292 3.2 9.7 0.00 0.00 0.00 52 1011.6
20260505165524 15 325 1.6 12.9 0.00 0.00 0.00 51 1011.7
20260505165024 15 120 4.8 12.9 0.00 0.00 0.00 50 1011.7
20260505164538 15 51 1.6 11.3 0.00 0.00 0.00 51 1011.6
20260505164025 15 129 3.2 16.1 0.00 0.00 0.00 51 1011.6
20260505163526 15 105 4.8 16.1 0.00 0.00 0.00 50 1011.7
20260505163043 15 0 3.2 12.9 0.00 0.00 0.00 51 1011.6
20260505162523 15 38 1.6 9.7 0.00 0.00 0.00 51 1011.7
20260505162024 15 162 3.2 8.0 0.00 0.00 0.00 52 1011.7
20260505161541 15 18 1.6 16.1 0.00 0.00 0.00 52 1011.6
20260505161026 15 22 3.2 16.1 0.00 0.00 0.00 52 1011.6
20260505160524 15 93 1.6 11.3 0.00 0.00 0.00 52 1011.5
20260505153037 16 126 3.2 11.3 0.00 0.00 0.00 50 1011.6
20260505152523 16 190 3.2 12.9 0.00 0.00 0.00 48 1011.6
20260505152027 16 162 1.6 12.9 0.00 0.00 0.00 49 1011.6
20260505151537 16 347 1.6 16.1 0.00 0.00 0.00 50 1011.6
20260505151025 16 344 3.2 16.1 0.00 0.00 0.00 49 1011.7
20260505150524 16 137 6.4 16.1 0.00 0.00 0.00 47 1011.7
20260505140524 16 78 3.2 14.5 0.00 0.00 0.00 53 1011.9
20260505130104 16 221 3.2 12.9 0.00 0.00 0.00 54 1012.0
20260505125023 16 93 3.2 14.5 0.00 0.00 0.00 55 1012.0
20260505124541 16 41 3.2 14.5 0.00 0.00 0.00 57 1012.0
20260505124023 16 319 1.6 14.5 0.00 0.00 0.00 57 1012.1
20260505123525 16 51 3.2 14.5 0.00 0.00 0.00 57 1012.0
20260505123043 16 38 1.6 14.5 0.00 0.00 0.00 57 1012.1
20260505122523 16 97 3.2 11.3 0.00 0.00 0.00 57 1012.1
20260505122024 16 68 3.2 11.3 0.00 0.00 0.00 56 1012.2
20260505121535 16 340 3.2 12.9 0.00 0.00 0.00 55 1012.1
20260505121024 16 225 4.8 12.9 0.00 0.00 0.00 54 1012.1
20260505120524 16 51 3.2 16.1 0.00 0.00 0.00 55 1012.1
20260505120039 16 48 3.2 16.1 0.00 0.00 0.00 56 1012.2
20260505115523 16 51 4.8 16.1 0.00 0.00 0.00 57 1012.1
20260505115023 16 305 3.2 12.9 0.00 0.00 0.00 59 1012.1
20260505114538 16 57 3.2 14.5 0.00 0.00 0.00 59 1012.1
20260505114024 16 24 3.2 14.5 0.00 0.00 0.00 58 1012.1
20260505113523 16 80 3.2 14.5 0.00 0.00 0.00 56 1012.2
20260505113044 16 9 3.2 14.5 0.00 0.00 0.00 59 1012.1
20260505112523 16 43 3.2 14.5 0.00 0.00 0.00 61 1012.1
20260505112023 15 300 3.2 14.5 0.00 0.00 0.00 59 1012.2
20260505111540 15 337 3.2 14.5 0.00 0.00 0.00 64 1012.1
20260505111023 15 93 3.2 14.5 0.00 0.00 0.00 65 1012.1
20260505110524 15 162 1.6 12.9 0.00 0.00 0.00 65 1012.1
20260505102023 15 93 4.8 17.7 0.00 0.00 0.00 66 1012.2
20260505101540 15 72 3.2 17.7 0.00 0.00 0.00 68 1012.1
20260505101023 15 341 3.2 14.5 0.00 0.00 0.00 66 1012.1
20260505100526 15 178 3.2 14.5 0.00 0.00 0.00 66 1012.1
20260505100037 15 265 3.2 14.5 0.00 0.00 0.00 65 1012.1
20260505095524 15 9 3.2 14.5 0.00 0.00 0.00 66 1012.1
20260505095023 15 66 3.2 14.5 0.00 0.00 0.00 69 1012.1